www.pogodaiklimat.ru

Погода и климат >> Архив погоды >> Пакистан >> Фейсалабад


ПОГОДА в Фейсалабаде

  • Прогноз погоды в Фейсалабаде
  • Монитор погоды в Фейсалабаде

АРХИВ ПОГОДЫ в Фейсалабаде

Время (UTC), дата Ветер
(напр.,м/с)
 
Видим.   Явления Облачность Т
(С)
Тd
(С)
f
(%)
Тe
(С)
Тes
(С)
Комфортность P
(гПа)
Po
(гПа)
Тmin
(С)
Tmax
(С)
R
(мм)
R24
(мм)
S
(см)
18 16.01 штиль 0 2000 м дымка ясно +9.0 +6.9 87 +8 +8 1020.8 1000.0
21 16.01 штиль 0 2000 м дымка ясно +7.0 +4.7 85 +6 +6 1020.4 1000.0
00 17.01 штиль 0 200 м туман ясно +4.0 +2.8 92 +3 +3 1019.6 1000.0
03 17.01 штиль 0 300 м туман ?/? +1.0 +1.0 100 -0 -0 1020.9 1000.0 +0.5
06 17.01 штиль 0 200 м дымка ясно +10.5 +7.4 81 +10 +20 опасность
простуды
1021.3 1000.0
09 17.01 СЗ 1 2000 м мгла ясно +19.0 +5.9 42 +21 +28 комфорт 1018.0 1000.0
12 17.01 штиль 0 4000 м мгла ясно +19.0 +7.2 46 +19 +20 1016.8 1000.0 +20.1
15 17.01 штиль 0 2000 м дым ясно +12.5 +7.4 71 +12 +12 1018.1 1000.0
18 17.01 штиль 0 2000 м дым ясно +8.5 +5.2 80 +8 +8 1019.8 1000.0
21 17.01 штиль 0 1000 м дымка 4/0
[Ac trans]
+6.5 +4.2 85 +6 +6 1019.1 1000.0
00 18.01 штиль 0 1000 м дымка 3/0
[Ac trans]
+6.0 +3.8 86 +5 +5 1018.9 1000.0
03 18.01 штиль 0 500 м туман 6/0
[]
+7.0 +5.9 93 +6 +7 1019.6 1000.0 +1.1
06 18.01 штиль 0 1000 м мгла 4/0
[Ac trans]
+17.0 +5.7 47 +17 +25 1019.9 1000.0
09 18.01 СЗ 1 4000 м мгла 4/0
[Ac trans]
+20.5 +5.4 37 +22 +28 комфорт 1017.5 1000.0
12 18.01 С 1 4000 м мгла 6/0
[Ac As]
+19.5 +5.3 39 +22 +22 комфорт 1016.7 1000.0 +21.3
15 18.01 штиль 0 4000 м дым 6/0
[Ac As]
+14.5 +8.6 68 +14 +14 1017.9 1000.0
18 18.01 штиль 0 4000 м дым 6/0
[Ac As]
+12.5 +8.5 77 +12 +12 1018.4 1000.0
21 18.01 штиль 0 2000 м дымка 6/0
[Ac As]
+11.0 +7.9 81 +10 +10 1018.0 1000.0
00 19.01 штиль 0 2000 м дымка 4/0
[Ac trans]
+9.5 +7.4 87 +9 +9 1017.7 1000.0
03 19.01 штиль 0 500 м дымка 4/0
[Ac trans]
+7.5 +5.3 86 +7 +8 1018.6 1000.0 +6.1
06 19.01 штиль 0 2000 м мгла 6/4 300 м
[Sc diur, vesp Ac trans]
+16.5 +3.6 42 +17 +22 1020.0 1000.0
09 19.01 С 1 4000 м мгла 9/0
[Ac trans Ci sp]
+20.5 +2.3 30 +22 +28 комфорт 1017.5 1000.0
12 19.01 СЗ 1 4000 м мгла 8/0
[Ac trans Ci sp]
+19.5 +3.8 35 +21 +21 комфорт 1016.8 1017.0 +21.3
15 19.01 штиль 0 4000 м дым 5/0
[Ac As]
+14.5 +7.4 62 +14 +14 1017.5 1000.0
18 19.01 штиль 0 4000 м дым 6/0
[Ac As]
+13.0 +6.8 66 +13 +13 1017.5 1000.0
21 19.01 штиль 0 4000 м мгла 6/0
[Ac As]
+11.5 +7.4 76 +11 +11 1017.7 1018.0
00 20.01 штиль 0 4000 м дым 10/10 300 м
[Sc As trans]
+11.5 +8.5 82 +11 +11 1017.2 1000.0
03 20.01 штиль 0 500 м дымка 8/0
[Ac As]
+10.5 +7.4 81 +10 +11 1018.3 1018.0 +7.3
06 20.01 СВ 3 500 м дым 9/4 1200 м
[Sc Ac As]
+16.0 +8.1 59 +16 +17 1018.8 1019.0
09 20.01 СЗ 2 500 м слаб. дождь {гроза, морось} 10/10 300 м
[Sc As trans]
+16.0 +11.4 74 +16 +16 1017.4 1000.0 0.2
12 20.01 СВ 2 1000 м слаб. дождь {гроза} 10/10 300 м
[Sc As trans]
+13.0 +11.1 88 +13 +13 1016.5 1000.0 +17.9 0.8
15 20.01 СВ 1 1000 м слаб. дождь 10/10 300 м
[Sc As trans]
+12.0 +10.1 88 +12 +12 1016.7 1000.0 0.7
18 20.01 штиль 0 500 м слаб. морось {дождь} 10/10 300 м
[Sc As op]
+12.0 +10.1 88 +11 +11 1017.1 1000.0 0.0
21 20.01 штиль 0 500 м туман на расстоянии 10/10 300 м
[Sc As op]
+11.5 +10.0 90 +11 +11 1016.9 1000.0
00 21.01 штиль 0 200 м туман 10/4 1200 м
[Sc As trans]
+10.5 +9.5 94 +10 +10 1015.9 1016.0
03 21.01 штиль 0 200 м туман {дождь} 10/10 300 м
[Sc As trans]
+11.0 +10.0 94 +10 +10 1016.9 1000.0 +10.1 0.0
06 21.01 В 2 500 м дымка {дождь, туман} 9/4 1200 м
[Sc diur, vesp Ac As]
+13.0 +11.1 88 +12 +14 1016.9 1017.0
09 21.01 штиль 0 500 м туман {дождь} 10/10 300 м
[Sc As op]
+12.5 +11.6 94 +12 +12 1014.0 1000.0 3
12 21.01 штиль 0 1000 м дымка {дождь, туман} 10/10 300 м
[Sc As op]
+13.0 +12.1 94 +12 +12 1012.1 1000.0 +13.3
15 21.01 штиль 0 1000 м дымка {туман} 10/4 1200 м
[Sc As op]
+13.0 +12.1 94 +12 +12 1011.8 1012.0
18 21.01 штиль 0 1000 м дымка {туман} 10/10 300 м
[Sc As op Ci fib]
+13.0 +12.1 94 +12 +12 1012.9 1000.0
21 21.01 штиль 0 500 м туман 9/9 300 м
[Sc Ac As]
+12.5 +11.6 94 +12 +12 1012.8 1000.0
00 22.01 С 1 500 м туман 9/8 300 м
[Sc Ac As]
+12.0 +12.0 100 +12 +12 1012.4 1000.0
03 22.01 штиль 0 2000 м дымка {туман} 8/5 300 м
[Sc Ac As]
+11.0 +10.0 94 +10 +11 1013.6 1000.0 +10.9
06 22.01 СЗ 1 2000 м дымка 8/4 300 м
[Sc diur, vesp Ac As]
+13.0 +10.1 83 +13 +16 1015.2 1000.0
09 22.01 СЗ 2 4000 м дым 4/4 1200 м
[Sc diur, vesp]
+15.5 +9.8 69 +15 +19 1013.5 1014.0
12 22.01 штиль 0 4000 м дым 3/3 300 м
[Sc diur, vesp]
+16.0 +9.3 64 +16 +16 1013.6 1000.0 +16.3
15 22.01 штиль 0 4000 м дым 4/4 300 м
[Sc]
+12.5 +8.5 77 +12 +12 1016.5 1000.0
18 22.01 штиль 0 4000 м дым 3/3 300 м
[Sc diur, vesp]
+11.0 +10.0 94 +10 +10 1017.4 1000.0
21 22.01 штиль 0 1000 м дымка 8/5 300 м
[Sc Ac trans]
+9.5 +8.5 93 +9 +9 1018.1 1000.0
00 23.01 штиль 0 1000 м дымка {туман} 8/5 300 м
[Sc Ac As]
+8.0 +6.9 93 +7 +7 1018.2 1000.0
03 23.01 штиль 0 1000 м дымка 9/8 300 м
[Sc Ac As]
+10.0 +7.9 87 +9 +9 1019.8 1000.0 +8.1
06 23.01 штиль 0 2000 м дым 6/3 1200 м
[Sc Ac trans]
+13.0 +8.0 72 +13 +18 1021.1 1021.0
09 23.01 ЮВ 1 2000 м дым 4/4 300 м
[Sc diur, vesp]
+16.0 +10.4 69 +17 +21 1019.6 1000.0
12 23.01 штиль 0 2000 м дым 6/4 1200 м
[Sc Ac trans]
+15.5 +9.8 69 +15 +15 1019.3 1019.0 +16.5

 

Местоположение метеостанции Фейсалабад (Пакистан): широта 31.43 долгота 73.10 высота над уровнем моря 184 м.

В архиве по умолчанию представлена погода в Фейсалабаде за последнюю неделю. Архивные данные за месяц целиком и за предыдущие месяцы, начиная с января 2011 года, Вы можете получить, выбрав интересующий диапазон дат из раскрывающегося списка и нажав кнопку "Ввод!".


*Определитесь, кто Вы:
робот инопланетянин человек

Внимание! Время в таблицах - всемирное. Для получения местного времени необходимо прибавить поправку, которая равна 5 ч.

Смотрите также архив погоды в соседних городах и на ближайших метеорологических станциях:

Погода в Саргодхе (Пакистан) (80 км)
Погода на Авиабазе Raifiqui (Пакистан) (112 км)
Погода в Лахоре (Пакистан) (117 км)
Погода в Бахавалнагаре (Пакистан) (165 км)
Погода в Амритсаре (Пенджаб, Индия) (169 км)
Погода в Джеламе (Пакистан) (177 км)
Погода в Сиялкоте (Пакистан) (180 км)
Погода в Шри-Ганганагаре (Раджастхан, Индия) (183 км)
Погода в Мианвали (Пакистан) (194 км)
Погода в Мултане (Пакистан) (210 км)

Пояснения к столбцам:

Ветер - указаны скорость ветра в м/с - средняя за 10 мин, порывы в срок и между сроками (в фигурных скобках) и направление, откуда дует ветер: С - северный, СВ - северо-восточный, В - восточный, ЮВ - юго-восточный, Ю - южный, ЮЗ - юго-западный, З - западный, СЗ - северо-западный.
Видимость - горизонтальная дальность видимости в метрах или километрах. При видимости от 1 до 10 км при отсутствии осадков обычно наблюдается дымка, при ухудшении видимости до 1 км и менее - туман. В сухую погоду видимость может ухудшаться дымом, пылью или мглою.
Явления - указаны атмосферные явления, наблюдавшиеся в срок или в последний час перед сроком; фигурными скобками обозначены явления, наблюдавшиеся между сроками (за 1-3 часа до срока); квадратными скобками обозначены град или гололедные отложения с указанием их диаметра в мм.
Облачность - указаны через наклонную черту общая и нижняя облачность в баллах и высота нижней границы облаков в метрах; квадратными скобками обозначены формы облаков: Ci - перистые, Cs - перисто-слоистые, Cc - перисто-кучевые, Ac - высококучевые, As - высокослоистые, Sc - слоисто-кучевые, Ns - слоисто-дождевые, Cu - кучевые, Cb - кучево-дождевые. Подробнее классификацию облаков см. в Атласе облаков (PDF).
T - Температура воздуха - температура, измеренная на высоте 2 м над землей.
Td - Температура точки росы - температура, при понижении до которой содержащийся в воздухе водяной пар достигнет насыщения.
f - Относительная влажность воздуха - влажноcть воздуха, измеренная на высоте 2 м над землей.
Te - Эффективная температура - температура, которую ощущает одетый по сезону человек в тени. Характеристика душности погоды. При расчете учитывается влияние влажности воздуха и скорости ветра на теплоощущения человека.
Tes - Эффективная температура на солнце - температура, которую ощущает человек, с поправкой на солнечный нагрев. Характеристика знойности погоды. Зависит от высоты солнца над горизонтом, облачности и скорости ветра. Ночью, в пасмурную погоду, а также при ветре 12 м/с и более поправка равна нулю.
P - Атмосферное давление - приведенное к уровню моря атмосферное давление.
Po - Атмосферное давление - измеренное на уровне метеостанции атмосферное давление.
Tmin - Минимальная температура - минимум температуры воздуха на высоте 2 м над землей.
Tmax - Максимальная температура - максимум температуры воздуха на высоте 2 м над землей.
R - Количество осадков - Количество выпавших осадков за период времени, мм. При наведении курсора мыши на число - период времени, за который выпало указанное количество осадков.
R24 - Количество осадков - Количество выпавших осадков за 24 часа, мм.
S - Снежный покров - Высота снежного покрова, см. При наведении курсора мыши на число - состояние снежного покрова и степень покрытия местности в баллах.